Wind_Speed
28 27 25 23 23 24 24 21 19 18 17 17 17 16 16 16 16 16 15 14 14 15 15 14 14 14 14 13 13 13 13 14 14 15 16 16 17 17 17 18 19 19 19 20
30 29 28 27 26 25 25 24 23 21 20 20 19 18 18 17 17 16 15 15 15 16 16 17 17 16 16 15 15 14 15 15 16 16 17 17 18 19 19 20 21 21 21 21
30 30 30 29 28 27 26 25 24 22 22 22 21 21 20 20 19 18 17 17 17 18 19 19 19 19 18 17 16 16 16 17 17 17 18 18 20 21 21 21 21 22 22 22
31 32 32 29 30 28 27 26 26 26 26 25 24 23 23 22 22 21 20 20 21 21 21 21 21 21 20 20 19 19 19 19 19 20 20 20 21 22 22 22 22 23 22 22
35 34 33 33 32 29 29 28 27 27 27 26 25 25 24 23 23 22 23 23 23 23 23 23 23 23 22 22 21 21 21 20 19 20 20 21 22 21 22 23 23 23 23 23
38 36 33 33 33 30 30 30 28 28 28 27 25 26 26 24 24 24 24 24 24 24 24 24 24 24 24 24 23 22 21 21 20 20 20 21 21 22 24 24 24 24 25 25
38 37 35 37 34 30 31 31 29 28 28 28 28 28 27 26 26 25 25 25 25 25 25 25 25 25 25 24 24 23 23 22 22 21 21 22 22 23 23 24 24 25 25 25
38 37 36 38 35 34 32 31 30 29 30 30 29 29 28 27 27 26 26 26 26 26 25 26 25 26 26 26 25 25 24 24 24 24 23 23 24 24 25 26 27 27 26 27
38 38 38 37 36 35 33 33 32 32 31 31 31 31 30 29 28 28 27 27 27 27 26 26 26 27 27 26 26 26 25 25 25 25 25 25 25 26 26 27 27 27 27 28
37 37 37 36 35 34 34 33 33 33 32 32 32 32 32 31 30 29 29 29 29 28 27 27 27 27 27 27 27 27 26 26 26 27 26 26 26 26 27 27 27 28 28 28
35 36 35 35 35 34 34 33 33 33 33 32 32 32 31 31 30 30 30 30 29 29 28 28 28 27 27 27 27 27 27 26 27 26 26 26 26 26 27 28 28 28 28 29
33 34 33 34 33 33 32 32 32 32 33 33 33 32 31 30 31 31 30 30 29 29 28 27 27 27 27 27 26 26 26 26 26 26 25 26 27 27 28 28 28 29 29 29
33 33 33 32 32 32 32 32 32 32 32 32 32 32 31 30 30 30 30 30 29 28 28 27 27 27 27 27 27 27 26 26 27 26 26 26 27 27 27 27 28 27 28 29
32 32 32 32 31 31 31 31 31 31 31 31 31 31 30 29 29 30 29 29 28 27 27 27 26 26 26 26 27 27 26 26 27 27 26 25 25 26 26 26 26 27 28 29
31 31 31 30 30 29 29 29 29 30 30 29 29 29 29 29 29 29 29 29 28 28 27 27 27 26 26 26 26 26 25 25 25 25 25 25 25 25 24 25 26 26 27 27
30 30 29 29 28 28 27 28 28 28 28 28 28 28 28 28 28 28 27 27 27 27 27 27 27 27 27 26 25 24 24 23 23 23 24 24 23 23 24 24 24 24 25 26
27 28 28 27 26 26 26 26 26 26 26 26 25 25 25 25 25 24 24 24 24 24 24 24 24 24 24 24 23 22 21 21 21 21 21 21 21 21 22 22 22 23 23 23
25 26 26 26 26 25 24 24 24 24 23 23 23 23 23 23 22 22 22 22 22 22 22 21 21 20 19 19 19 18 19 20 20 21 21 20 19 20 21 21 22 22 22 22
24 24 24 24 24 24 23 23 22 21 20 21 21 20 20 19 19 19 19 19 19 18 18 17 17 16 16 16 16 16 17 17 18 18 19 19 19 20 20 20 21 21 22 23
22 22 22 22 22 22 20 19 19 18 17 16 16 17 17 17 17 17 17 16 15 15 15 15 14 14 13 13 14 15 15 15 16 16 17 17 18 19 20 20 21 22 23 25
20 20 20 19 19 19 18 17 17 16 15 15 14 14 14 14 14 14 14 14 13 13 12 12 12 12 12 12 13 13 13 14 15 17 18 18 19 20 20 21 22 23 24 24
18 17 17 17 17 16 15 15 15 15 14 13 13 13 13 12 11 12 12 11 11 11 11 11 11 11 11 12 13 14 14 15 16 17 18 18 19 19 21 22 22 23 23 23
17 16 16 16 16 15 15 14 13 13 12 12 12 12 11 11 10 10 9 10 10 10 10 10 11 11 12 13 13 14 15 16 17 17 18 19 20 21 22 22 23 23 23 24
15 14 14 13 13 13 13 13 13 12 12 11 11 11 10 10 10 9 9 10 10 11 11 12 11 12 12 13 15 15 16 18 19 19 20 21 21 22 22 23 23 24 24 24
13 13 12 12 12 12 12 12 12 12 11 11 10 10 10 10 10 10 10 10 11 11 12 12 13 14 15 16 17 18 19 20 20 21 21 22 22 23 23 24 24 25 25 25
12 12 11 11 11 12 12 11 11 10 10 9 9 9 9 9 9 9 10 11 11 12 13 15 16 17 18 19 19 20 21 21 22 23 23 24 24 24 25 25 25 25 25 25
10 10 10 10 11 11 11 10 10 9 9 9 9 9 9 9 10 11 12 13 14 16 17 18 19 19 20 21 21 22 23 24 25 25 25 25 25 26 26 26 26 26 26 25
Wind_Direction
232 234 240 244 244 245 246 246 247 253 256 262 267 270 269 272 275 277 278 275 273 271 272 277 280 280 280 280 279 277 274 268 264 259 254 250 249 250 250 248 245 245 247 249
237 239 241 241 241 243 245 246 247 250 256 259 265 267 268 270 276 277 276 274 272 271 272 274 276 277 276 276 276 277 276 272 267 263 259 255 254 253 253 252 250 250 249 251
239 240 240 241 241 242 245 246 248 253 257 261 264 265 267 270 274 273 273 274 273 273 273 273 273 275 276 275 276 278 278 276 271 264 262 258 256 256 255 252 253 254 256 254
238 241 242 243 243 242 244 246 248 252 257 262 263 263 264 267 268 267 268 270 270 270 270 272 272 273 274 273 274 275 276 275 271 266 264 261 260 256 254 253 253 253 255 255
240 243 246 245 245 243 246 248 250 253 256 259 261 262 262 264 265 265 266 268 267 267 268 269 270 271 270 272 272 272 272 274 272 266 265 264 259 258 254 254 254 253 257 258
241 241 243 250 247 244 247 250 249 251 253 256 259 261 262 263 264 265 266 267 267 266 267 268 268 269 268 269 268 268 270 270 271 271 270 266 261 260 256 256 256 257 259 261
240 243 244 247 250 248 248 250 250 249 250 252 255 258 262 262 263 264 265 265 264 265 267 267 266 266 265 265 266 266 267 268 268 268 269 267 263 262 260 258 259 259 260 260
239 241 243 247 249 249 249 250 251 250 250 251 253 256 258 260 261 262 263 263 263 264 267 266 266 264 263 263 263 264 265 265 266 266 267 266 265 263 262 262 261 260 260 262
239 241 243 247 248 249 249 249 249 249 249 250 251 254 255 257 258 260 261 262 263 264 265 265 264 262 260 260 261 263 263 264 264 265 266 267 266 265 265 262 261 260 262 266
240 242 243 245 247 247 248 248 248 249 249 248 250 252 253 255 257 258 260 262 263 263 264 264 262 260 259 259 261 261 262 263 263 264 266 267 267 267 265 263 263 264 267 269
240 242 243 244 245 246 247 247 247 247 248 249 250 252 254 254 255 256 258 260 261 261 262 263 261 259 259 260 261 261 262 264 264 263 263 263 264 265 264 262 261 264 267 271
237 240 241 243 244 245 245 246 246 247 247 249 250 252 253 255 256 257 257 259 260 260 260 261 261 259 258 259 260 261 263 263 262 262 263 263 262 262 262 261 262 267 268 271
237 239 240 241 243 244 245 246 248 247 248 248 250 252 254 256 257 256 257 258 259 259 260 260 259 259 258 259 259 261 262 261 259 261 262 263 262 262 262 264 266 268 271 274
236 238 239 240 242 243 245 246 246 247 246 248 250 251 253 255 255 255 256 257 258 257 258 257 257 258 259 260 261 262 261 260 260 260 260 261 261 263 265 266 267 270 273 275
236 238 238 238 241 242 244 244 245 245 246 248 250 251 251 253 254 254 255 257 256 256 255 256 255 257 258 260 262 261 261 261 258 256 258 259 260 262 264 266 267 271 274 276
237 238 237 238 240 241 241 242 244 245 247 248 249 250 252 253 254 255 255 255 254 254 254 255 255 256 258 260 259 260 259 257 255 255 256 257 259 261 263 265 269 275 277 280
235 235 234 235 237 237 237 239 243 245 246 246 247 249 250 250 251 251 251 250 250 251 251 252 254 255 256 256 255 255 255 254 254 254 254 256 258 260 265 270 274 278 280 282
232 231 229 231 232 233 236 238 240 242 242 244 245 247 247 246 246 246 246 247 248 248 249 250 252 251 250 250 250 250 252 253 253 254 255 257 261 266 268 271 277 281 286 290
228 227 227 227 228 231 235 236 236 238 239 241 241 241 241 241 241 241 242 243 243 243 242 241 243 243 242 243 246 250 253 255 256 258 262 261 262 266 271 276 281 286 290 293
220 221 223 224 226 229 230 229 229 230 232 234 234 233 233 233 233 233 235 235 234 234 234 236 237 237 240 244 249 253 255 256 259 265 268 268 270 274 279 283 287 289 292 294
213 215 217 219 221 222 222 220 221 222 222 225 227 226 226 226 226 227 226 225 225 226 228 230 233 238 243 247 252 257 260 261 266 271 273 274 277 281 284 287 289 292 295 297
206 207 208 209 211 213 214 211 209 211 212 214 216 215 216 217 217 219 220 221 222 223 228 232 236 244 252 258 263 266 268 270 272 274 276 280 284 286 289 291 294 296 297 298
195 197 199 200 202 203 201 199 199 199 201 205 205 204 207 209 211 215 218 223 226 230 237 243 250 259 264 267 271 274 277 279 280 282 285 287 289 291 292 293 295 296 297 298
184 188 190 189 190 192 190 192 194 196 200 201 199 200 201 205 213 220 224 229 234 240 247 253 259 265 272 277 279 281 282 282 284 285 288 290 292 293 294 294 295 296 296 296
175 178 180 182 182 182 185 188 191 196 199 199 198 201 206 213 219 226 233 241 247 254 259 264 269 273 277 280 282 283 284 285 287 288 290 292 294 295 295 294 294 295 295 294
167 169 171 174 178 180 181 184 189 194 198 200 205 211 218 225 232 242 252 257 260 264 270 275 278 280 282 284 285 286 287 288 289 290 291 292 293 294 294 293 293 293 293 292
157 159 164 171 177 181 183 185 191 199 206 214 221 229 239 247 253 261 267 271 274 277 279 280 281 282 283 286 288 289 290 291 291 290 291 291 292 293 292 291 291 291 290 289
Height
5824 5826 5828 5831 5833 5835 5837 5840 5843 5845 5845 5845 5844 5844 5844 5844 5844 5843 5843 5842 5842 5841 5841 5841 5840 5840 5839 5839 5839 5838 5838 5838 5837 5837 5838 5838 5839 5840 5841 5842 5842 5843 5844 5846
5816 5819 5821 5824 5826 5829 5831 5834 5836 5838 5840 5839 5839 5839 5839 5839 5839 5839 5838 5838 5837 5837 5837 5837 5836 5836 5836 5836 5835 5835 5834 5834 5834 5834 5834 5834 5835 5836 5836 5837 5838 5839 5840 5841
5809 5811 5813 5816 5820 5822 5825 5827 5830 5832 5833 5832 5833 5834 5834 5834 5834 5833 5833 5833 5833 5832 5832 5832 5832 5831 5831 5831 5831 5831 5830 5830 5829 5829 5830 5830 5830 5831 5831 5832 5833 5834 5835 5836
5801 5803 5806 5812 5811 5815 5817 5820 5822 5824 5825 5826 5826 5827 5827 5828 5828 5828 5828 5828 5828 5827 5827 5827 5827 5826 5826 5826 5826 5826 5825 5825 5824 5824 5825 5825 5825 5825 5826 5827 5827 5828 5829 5830
5792 5794 5798 5801 5804 5807 5810 5812 5815 5816 5817 5818 5819 5819 5820 5821 5821 5821 5821 5821 5821 5821 5821 5821 5821 5821 5821 5821 5820 5820 5820 5820 5819 5819 5819 5819 5819 5820 5820 5821 5822 5823 5823 5824
5782 5786 5790 5794 5795 5799 5803 5804 5806 5808 5809 5811 5812 5812 5812 5814 5814 5814 5815 5815 5815 5815 5815 5815 5815 5815 5814 5814 5815 5815 5814 5814 5814 5814 5814 5814 5814 5814 5814 5815 5816 5817 5818 5818
5772 5776 5782 5783 5786 5791 5795 5796 5798 5799 5801 5803 5804 5805 5805 5806 5806 5807 5807 5808 5808 5808 5808 5808 5808 5808 5808 5808 5808 5808 5808 5808 5808 5808 5808 5808 5808 5809 5809 5809 5810 5811 5811 5811
5764 5768 5774 5773 5777 5782 5784 5787 5789 5791 5793 5794 5795 5797 5797 5798 5799 5799 5799 5800 5800 5801 5801 5800 5800 5801 5801 5801 5802 5802 5802 5802 5802 5802 5802 5802 5803 5803 5803 5803 5804 5804 5804 5805
5755 5759 5761 5764 5767 5771 5774 5777 5779 5781 5783 5785 5786 5788 5789 5790 5791 5791 5792 5792 5793 5793 5793 5793 5793 5794 5794 5794 5794 5795 5795 5795 5795 5796 5796 5796 5796 5796 5796 5796 5797 5797 5797 5797
5744 5747 5751 5754 5757 5761 5764 5767 5769 5772 5774 5776 5777 5779 5780 5781 5782 5783 5784 5784 5785 5785 5785 5786 5786 5786 5787 5787 5787 5787 5788 5788 5788 5788 5789 5789 5789 5789 5789 5789 5790 5790 5790 5790
5735 5737 5741 5744 5747 5751 5754 5757 5760 5762 5764 5766 5768 5770 5771 5772 5773 5774 5775 5775 5776 5777 5777 5778 5778 5778 5779 5779 5779 5779 5780 5781 5781 5781 5781 5781 5781 5782 5782 5782 5782 5783 5783 5782
5725 5728 5732 5735 5738 5741 5744 5747 5750 5752 5755 5756 5758 5760 5762 5763 5764 5765 5766 5767 5767 5768 5768 5769 5770 5770 5771 5771 5771 5772 5773 5773 5773 5773 5774 5774 5774 5774 5774 5775 5775 5775 5775 5775
5716 5719 5723 5726 5729 5732 5735 5738 5740 5743 5745 5747 5749 5751 5752 5753 5755 5756 5756 5757 5758 5759 5760 5760 5761 5762 5762 5763 5764 5764 5765 5765 5765 5766 5766 5766 5766 5767 5767 5767 5767 5767 5767 5766
5707 5711 5714 5717 5720 5723 5726 5729 5731 5733 5736 5738 5740 5741 5743 5744 5745 5746 5748 5749 5749 5750 5751 5752 5753 5754 5755 5755 5756 5756 5757 5757 5758 5758 5758 5758 5759 5759 5759 5760 5760 5759 5759 5758
5699 5702 5705 5709 5712 5715 5717 5720 5722 5725 5727 5729 5731 5732 5734 5735 5737 5738 5739 5740 5741 5742 5743 5744 5745 5746 5747 5747 5748 5748 5749 5750 5750 5751 5751 5751 5752 5752 5752 5753 5753 5752 5751 5750
5691 5694 5698 5701 5704 5707 5710 5712 5714 5716 5718 5720 5722 5724 5725 5726 5728 5729 5730 5732 5733 5734 5735 5736 5737 5738 5739 5740 5740 5741 5741 5742 5743 5744 5744 5745 5745 5745 5745 5745 5745 5745 5744 5743
5684 5687 5690 5694 5697 5699 5702 5704 5706 5708 5710 5712 5714 5716 5717 5719 5720 5721 5722 5724 5725 5727 5728 5729 5730 5731 5732 5732 5733 5734 5735 5735 5736 5737 5738 5738 5739 5739 5739 5739 5739 5738 5737 5736
5677 5680 5684 5687 5690 5693 5695 5698 5700 5702 5703 5705 5707 5709 5710 5711 5713 5714 5716 5717 5719 5720 5721 5722 5723 5725 5726 5726 5727 5728 5729 5730 5730 5731 5731 5732 5732 5732 5732 5732 5732 5731 5730 5729
5671 5674 5678 5680 5683 5686 5689 5691 5693 5695 5697 5699 5700 5702 5703 5705 5706 5708 5710 5711 5712 5714 5715 5717 5718 5719 5720 5721 5722 5723 5724 5724 5725 5725 5726 5726 5726 5726 5726 5725 5725 5724 5723 5721
5666 5669 5672 5675 5678 5681 5684 5686 5688 5690 5692 5694 5695 5697 5698 5700 5701 5703 5705 5706 5708 5709 5711 5712 5713 5715 5716 5717 5718 5718 5719 5719 5720 5720 5720 5720 5720 5720 5719 5719 5718 5717 5715 5713
5661 5665 5667 5670 5674 5677 5679 5681 5684 5686 5688 5690 5691 5693 5695 5696 5698 5699 5701 5703 5704 5706 5707 5709 5710 5711 5712 5713 5714 5714 5714 5715 5715 5715 5715 5715 5714 5714 5713 5712 5711 5709 5707 5705
5658 5661 5664 5668 5671 5673 5676 5678 5680 5683 5685 5687 5688 5690 5692 5693 5695 5697 5698 5700 5701 5703 5704 5705 5706 5707 5708 5709 5709 5710 5710 5710 5710 5710 5709 5709 5708 5707 5706 5705 5703 5701 5699 5697
5655 5659 5662 5665 5668 5671 5673 5676 5678 5680 5683 5685 5686 5688 5690 5691 5693 5695 5696 5698 5699 5700 5702 5702 5703 5704 5705 5705 5705 5705 5705 5705 5704 5704 5703 5702 5701 5700 5698 5697 5695 5693 5691 5690
5655 5658 5661 5664 5666 5669 5672 5674 5676 5679 5681 5683 5685 5687 5688 5690 5692 5693 5694 5695 5697 5698 5699 5699 5700 5700 5700 5700 5700 5700 5699 5699 5698 5697 5696 5695 5694 5692 5690 5689 5687 5685 5683 5681
5655 5658 5661 5663 5666 5668 5671 5673 5676 5678 5680 5682 5683 5685 5687 5688 5690 5691 5692 5693 5694 5694 5695 5695 5695 5695 5695 5695 5694 5694 5693 5692 5691 5690 5689 5687 5686 5684 5682 5681 5679 5677 5675 5673
5656 5658 5661 5663 5666 5668 5671 5673 5675 5677 5679 5681 5682 5684 5685 5686 5687 5688 5689 5689 5690 5690 5690 5690 5690 5690 5689 5689 5688 5687 5686 5685 5684 5682 5681 5679 5678 5676 5674 5672 5670 5668 5666 5664
5657 5660 5662 5664 5666 5669 5671 5673 5675 5677 5678 5680 5681 5682 5683 5683 5684 5685 5685 5685 5685 5685 5685 5685 5684 5684 5683 5682 5681 5680 5678 5677 5675 5674 5672 5671 5669 5667 5665 5663 5661 5659 5657 5656